Richmond, VA

10:01 PM EDT on May 27, 2017 (GMT -0400)
Richmond International

Weather History for KRIC - December, 2011

Change the Weather History Date:

Tuesday, December 27, 2011

  Actual Average Record
Temperature  
Mean Temperature 49 °F 39 °F  
Max Temperature 60 °F 48 °F 75 °F (2015)
Min Temperature 37 °F 29 °F 4 °F (1966)
Degree Days  
Heating Degree Days 16 26  
Month to date heating degree days 489 637  
Since 1 July heating degree days 1043 1313  
Cooling Degree Days 0 0  
Month to date cooling degree days 0 0  
Year to date cooling degree days 1900 1548  
Moisture  
Dew Point 44 °F    
Average Humidity 79    
Maximum Humidity 93    
Minimum Humidity 65    
Precipitation  
Precipitation 0.41 in 0.10 in 1.39 in (1964)
Month to date precipitation 2.03 2.89  
Year to date precipitation 47.54 43.23  
Snow  
Snow 0.00 in 0.10 in 1.20 in (1899)
Month to date snowfall 0.0 1.8  
Since 1 July snowfall 0.0 2.0  
Snow Depth 0.00 in    
Sea Level Pressure  
Sea Level Pressure 29.72 in    
Wind  
Wind Speed 13 mph (South)    
Max Wind Speed 30 mph    
Max Gust Speed 40 mph    
Visibility 8 miles    
Events Rain    
T = Trace of Precipitation, MM = Missing Value Source: NWS Daily Summary

Daily Weather History Graph

Daily Weather History Graph

Search for Another Location

Airport or City:

Trip Planner

Search our weather history database for the weather conditions in past years. The results will help you decide how hot, cold, wet, or windy it might be!

Date:

Astronomy

Dec. 27, 2011 Rise Set
Actual Time 7:22 AM EST 4:57 PM EST
Civil Twilight 6:53 AM EST 5:27 PM EST
Nautical Twilight 6:20 AM EST 6:00 PM EST
Astronomical Twilight 5:48 AM EST 6:31 PM EST
Moon 9:20 AM EST (12/27) 8:25 PM EST (12/27)
Length of Visible Light 10h 33m
Length of Day
9h 35m
Waxing Crescent, 11% of the Moon is Illuminated
Dec 27
Waxing Crescent
Jan 1
First Quarter
Jan 9
Full
Jan 16
Last Quarter
Jan 23
New

Hourly Weather History & Observations

Time (EST) Temp. Windchill Dew Point Humidity Pressure Visibility Wind Dir Wind Speed Gust Speed Precip Events Conditions
12:54 AM 37.9 °F 33.5 °F 30.9 °F 76% 30.26 in 10.0 mi South 5.8 mph - N/A   Overcast
1:54 AM 37.9 °F 33.5 °F 30.0 °F 73% 30.25 in 10.0 mi South 5.8 mph - N/A   Overcast
2:54 AM 39.9 °F 35.1 °F 30.0 °F 68% 30.22 in 10.0 mi South 6.9 mph - N/A   Overcast
3:54 AM 39.9 °F 35.1 °F 32.0 °F 73% 30.18 in 10.0 mi South 6.9 mph - N/A   Overcast
4:54 AM 41.0 °F 34.7 °F 32.0 °F 70% 30.17 in 10.0 mi South 10.4 mph - N/A   Overcast
5:54 AM 41.0 °F 37.1 °F 32.0 °F 70% 30.14 in 10.0 mi SSE 5.8 mph - N/A   Overcast
6:54 AM 41.0 °F 37.1 °F 32.0 °F 70% 30.08 in 10.0 mi SSE 5.8 mph - N/A   Overcast
7:54 AM 42.1 °F 37.7 °F 32.0 °F 67% 30.01 in 10.0 mi SE 6.9 mph - N/A   Overcast
8:54 AM 42.8 °F 38.0 °F 32.0 °F 66% 29.99 in 10.0 mi SSE 8.1 mph - N/A   Overcast
9:54 AM 44.1 °F 38.1 °F 33.1 °F 65% 29.94 in 10.0 mi SE 11.5 mph - N/A   Overcast
10:54 AM 44.1 °F 37.7 °F 39.9 °F 85% 29.87 in 8.0 mi SE 12.7 mph - 0.03 in Rain Light Rain
11:54 AM 46.9 °F - 45.0 °F 93% 29.76 in 6.0 mi SE 17.3 mph - 0.04 in Rain Light Rain
12:19 PM 48.2 °F - 46.4 °F 93% 29.69 in 5.0 mi SE 17.3 mph 26.5 mph 0.03 in Rain Light Rain
12:36 PM 50.0 °F - 48.2 °F 94% 29.65 in 5.0 mi SE 18.4 mph 26.5 mph 0.04 in Rain Light Rain
12:54 PM 50.0 °F - 48.0 °F 93% 29.65 in 10.0 mi SSE 19.6 mph 27.6 mph 0.06 in Rain Light Rain
1:22 PM 51.8 °F - 48.2 °F 88% 29.59 in 10.0 mi SSE 18.4 mph - 0.00 in   Overcast
1:32 PM 51.8 °F - 50.0 °F 94% 29.58 in 10.0 mi SSE 20.7 mph 25.3 mph 0.00 in   Overcast
1:54 PM 53.1 °F - 51.1 °F 93% 29.56 in 10.0 mi SSE 19.6 mph 26.5 mph 0.00 in Rain Light Rain
2:24 PM 55.4 °F - 53.6 °F 94% 29.47 in 7.0 mi SSE 21.9 mph 38.0 mph 0.01 in Rain Light Rain
2:50 PM 57.2 °F - 55.4 °F 94% 29.47 in 1.8 mi SSE 24.2 mph 40.3 mph 0.08 in Rain Rain
2:54 PM 57.0 °F - 55.0 °F 93% 29.48 in 1.8 mi SSE 26.5 mph 40.3 mph 0.10 in Rain Rain
3:05 PM 57.2 °F - 55.4 °F 94% 29.45 in 2.0 mi SSE 20.7 mph 34.5 mph 0.04 in Rain Light Rain
3:13 PM 57.2 °F - 55.4 °F 94% 29.45 in 7.0 mi SSE 21.9 mph 32.2 mph 0.04 in Rain Light Rain
3:30 PM 57.2 °F - 55.4 °F 94% 29.44 in 10.0 mi SSE 26.5 mph 36.8 mph 0.05 in   Overcast
3:54 PM 57.9 °F - 55.9 °F 93% 29.46 in 10.0 mi South 20.7 mph 32.2 mph 0.05 in   Overcast
4:37 PM 59.0 °F - 57.2 °F 94% 29.46 in 1.8 mi West 19.6 mph 25.3 mph 0.02 in Rain Heavy Rain
4:54 PM 59.0 °F - 55.0 °F 87% 29.48 in 10.0 mi WSW 11.5 mph 24.2 mph 0.13 in   Mostly Cloudy
5:10 PM 57.2 °F - 53.6 °F 88% 29.48 in 10.0 mi WSW 16.1 mph 23.0 mph N/A   Mostly Cloudy
5:54 PM 57.9 °F - 53.1 °F 84% 29.51 in 10.0 mi West 17.3 mph 27.6 mph N/A   Mostly Cloudy
6:54 PM 55.0 °F - 46.9 °F 74% 29.55 in 10.0 mi WSW 17.3 mph 21.9 mph N/A   Scattered Clouds
7:54 PM 52.0 °F - 43.0 °F 71% 29.56 in 10.0 mi SW 17.3 mph 26.5 mph N/A   Scattered Clouds
8:54 PM 50.0 °F - 42.1 °F 74% 29.55 in 10.0 mi SW 12.7 mph 20.7 mph N/A   Partly Cloudy
9:54 PM 50.0 °F - 42.1 °F 74% 29.57 in 10.0 mi WSW 17.3 mph 21.9 mph N/A   Scattered Clouds
10:54 PM 50.0 °F - 39.0 °F 66% 29.57 in 10.0 mi West 16.1 mph 24.2 mph N/A   Partly Cloudy
11:54 PM 48.9 °F - 37.0 °F 64% 29.58 in 10.0 mi West 12.7 mph - N/A   Partly Cloudy